GW5365 Weather Reports


time (UTC)temp
C
wind
direction
speed
KPH
gust
KPH
rain 1hr
cm
rain 24hr
cm
rain mn
cm
humidity
%
barometer
mb
20260507013640 15 90 3.2 3.2 0.00 0.00 0.00 57 1010.1
20260507012640 15 270 4.8 4.8 0.00 0.00 0.00 57 1010.2
20260507011641 15 270 3.2 3.2 0.00 0.00 0.00 51 1010.2
20260507010640 16 270 0.0 0.0 0.00 0.00 0.00 51 1010.2
20260507005640 16 270 3.2 3.2 0.00 0.00 0.00 46 1010.3
20260507004641 16 270 3.2 3.2 0.00 0.00 0.00 45 1010.3
20260507003640 16 270 4.8 4.8 0.00 0.00 0.00 45 1010.2
20260507002641 16 270 0.0 0.0 0.00 0.00 0.00 44 1010.2
20260507001641 17 248 8.0 8.0 0.00 0.00 0.00 43 1010.5
20260507000640 17 292 16.1 16.1 0.00 0.00 0.00 41 1010.6
20260506235640 17 158 11.3 11.3 0.00 0.00 0.00 43 1010.3
20260506233640 17 180 8.0 8.0 0.00 0.00 0.00 42 1010.3
20260506231640 17 180 3.2 3.2 0.00 0.00 0.00 39 1010.2
20260506225640 17 180 6.4 6.4 0.00 0.00 0.00 38 1010.0
20260506224640 17 180 1.6 1.6 0.00 0.00 0.00 38 1010.0
20260506223640 17 180 3.2 3.2 0.00 0.00 0.00 38 1010.0
20260506222641 17 180 4.8 4.8 0.00 0.00 0.00 37 1010.0
20260506221640 17 158 3.2 3.2 0.00 0.00 0.00 36 1010.1
20260506220640 17 180 3.2 3.2 0.00 0.00 0.00 38 1010.1
20260506215639 17 180 4.8 4.8 0.00 0.00 0.00 38 1010.1
20260506214640 17 180 3.2 3.2 0.00 0.00 0.00 38 1010.2
20260506213641 17 202 3.2 3.2 0.00 0.00 0.00 37 1010.2
20260506212640 17 202 4.8 4.8 0.00 0.00 0.00 36 1010.2
20260506211640 18 202 3.2 3.2 0.00 0.00 0.00 35 1010.1
20260506210640 18 225 1.6 1.6 0.00 0.00 0.00 32 1009.9
20260506205641 18 248 0.0 0.0 0.00 0.00 0.00 32 1009.9
20260506204641 18 248 0.0 0.0 0.00 0.00 0.00 33 1009.8
20260506203640 19 248 1.6 1.6 0.00 0.00 0.00 29 1009.8
20260506202641 19 248 4.8 4.8 0.00 0.00 0.00 28 1009.7
20260506201640 19 248 4.8 4.8 0.00 0.00 0.00 28 1009.6
20260506200640 19 248 1.6 1.6 0.00 0.00 0.00 29 1009.5
20260506194641 20 248 3.2 3.2 0.00 0.00 0.00 29 1009.4
20260506193640 20 292 3.2 3.2 0.00 0.00 0.00 30 1009.3
20260506192640 20 270 3.2 3.2 0.00 0.00 0.00 30 1009.2
20260506191639 20 248 4.8 4.8 0.00 0.00 0.00 30 1009.0
20260506185640 21 248 3.2 3.2 0.00 0.00 0.00 30 1009.0
20260506184641 21 248 8.0 8.0 0.00 0.00 0.00 30 1009.0
20260506181640 21 292 9.7 9.7 0.00 0.00 0.00 30 1008.8
20260506180641 21 270 9.7 9.7 0.00 0.00 0.00 31 1009.0
20260506175641 21 270 9.7 9.7 0.00 0.00 0.00 30 1009.0
20260506174641 21 270 8.0 8.0 0.00 0.00 0.00 30 1009.1
20260506173640 21 270 14.5 14.5 0.00 0.00 0.00 31 1009.1
20260506171640 21 270 12.9 12.9 0.00 0.00 0.00 30 1009.2
20260506170641 21 270 14.5 14.5 0.00 0.00 0.00 30 1009.2
20260506165642 21 292 9.7 9.7 0.00 0.00 0.00 31 1009.3
20260506163640 21 315 12.9 12.9 0.00 0.00 0.00 31 1009.2
20260506161640 21 292 9.7 9.7 0.00 0.00 0.00 31 1009.3
20260506160640 21 315 11.3 11.3 0.00 0.00 0.00 31 1009.4
20260506153641 21 45 8.0 8.0 0.00 0.00 0.00 31 1009.5
20260506152640 21 292 12.9 12.9 0.00 0.00 0.00 31 1009.6
20260506151641 21 270 12.9 12.9 0.00 0.00 0.00 31 1009.6
20260506144642 21 270 16.1 16.1 0.00 0.00 0.00 33 1009.9
20260506142641 22 270 12.9 12.9 0.00 0.00 0.00 32 1010.2
20260506140640 21 315 6.4 6.4 0.00 0.00 0.00 32 1010.5
20260506134640 21 270 11.3 11.3 0.00 0.00 0.00 32 1010.5
20260506133641 21 315 4.8 4.8 0.00 0.00 0.00 32 1010.7
20260506132641 20 315 3.2 3.2 0.00 0.00 0.00 33 1010.8
20260506125641 20 292 8.0 8.0 0.00 0.00 0.00 33 1010.9
20260506124639 20 90 3.2 3.2 0.00 0.00 0.00 34 1010.8
20260506123639 20 315 12.9 12.9 0.00 0.00 0.00 33 1010.9
20260506121640 20 248 9.7 9.7 0.00 0.00 0.00 33 1011.2
20260506115640 20 338 12.9 12.9 0.00 0.00 0.00 34 1011.5
20260506114642 20 270 11.3 11.3 0.00 0.00 0.00 33 1011.6
20260506112640 19 338 9.7 9.7 0.00 0.00 0.00 33 1011.7
20260506111642 19 0 9.7 9.7 0.00 0.00 0.00 33 1011.8
20260506110642 20 292 9.7 9.7 0.00 0.00 0.00 34 1012.0
20260506105640 20 292 3.2 3.2 0.00 0.00 0.00 31 1012.1
20260506103641 19 68 1.6 1.6 0.00 0.00 0.00 35 1012.2
20260506102640 19 248 8.0 8.0 0.00 0.00 0.00 36 1012.2
20260506101641 19 292 9.7 9.7 0.00 0.00 0.00 37 1012.2
20260506100640 18 68 8.0 8.0 0.00 0.00 0.00 36 1012.4
20260506095641 18 45 3.2 3.2 0.00 0.00 0.00 38 1012.4
20260506094640 18 45 6.4 6.4 0.00 0.00 0.00 38 1012.3
20260506093640 18 68 1.6 1.6 0.00 0.00 0.00 37 1012.3
20260506091640 18 112 8.0 8.0 0.00 0.00 0.00 40 1012.4
20260506090640 18 68 3.2 3.2 0.00 0.00 0.00 42 1012.3
20260506084642 17 68 4.8 4.8 0.00 0.00 0.00 41 1012.4
20260506083641 17 90 3.2 3.2 0.00 0.00 0.00 43 1012.4
20260506082641 17 45 4.8 4.8 0.00 0.00 0.00 43 1012.3
20260506081641 17 112 4.8 4.8 0.00 0.00 0.00 44 1012.3
20260506080640 16 68 1.6 1.6 0.00 0.00 0.00 46 1012.4
20260506072641 16 90 8.0 8.0 0.00 0.00 0.00 47 1012.4
20260506071640 15 112 4.8 4.8 0.00 0.00 0.00 50 1012.4
20260506070640 15 135 8.0 8.0 0.00 0.00 0.00 52 1012.4
20260506061641 15 158 3.2 3.2 0.00 0.00 0.00 56 1012.3
20260506060640 13 180 0.0 0.0 0.00 0.00 0.00 56 1012.2
20260506050641 11 180 3.2 3.2 0.00 0.00 0.00 58 1012.1
20260506044640 12 180 0.0 0.0 0.00 0.00 0.00 58 1011.9
20260506043641 12 180 1.6 1.6 0.00 0.00 0.00 55 1012.0
20260506041640 13 180 3.2 3.2 0.00 0.00 0.00 55 1012.0
20260506040640 13 180 3.2 3.2 0.00 0.00 0.00 54 1012.0
20260506034640 13 180 0.0 0.0 0.00 0.00 0.00 50 1012.0
20260506033640 13 180 3.2 3.2 0.00 0.00 0.00 49 1012.2
20260506032641 13 180 3.2 3.2 0.00 0.00 0.00 48 1012.2
20260506031640 12 180 3.2 3.2 0.00 0.00 0.00 51 1012.3
20260506030641 13 180 3.2 3.2 0.00 0.00 0.00 53 1012.2
20260506025640 13 180 0.0 0.0 0.00 0.00 0.00 49 1012.3
20260506024640 13 180 4.8 4.8 0.00 0.00 0.00 47 1012.3
20260506023641 13 180 0.0 0.0 0.00 0.00 0.00 49 1012.2
20260506020640 14 180 1.6 1.6 0.00 0.00 0.00 49 1012.3
20260506015640 14 180 3.2 3.2 0.00 0.00 0.00 46 1012.4
20260506014640 14 180 3.2 3.2 0.00 0.00 0.00 45 1012.4